Find Starlink 5584

NORAD ID: 55769 Int'l Des: 2023-028 Owner: SPXS Country: US Constellation: starlink operational
LEOCIRCULAR

現在のビュー

3D地球を読み込み中...

Starlink 5584について

説明を読み込み中...

次回通過

Passes for default location (London). Set your location on the main map for personalized predictions.

高度履歴

Loading altitude history...

軌道要素

1 55769U 23028AE 26146.07752929 -.00000178 00000-0 -71085-5 0 9991
2 55769 70.0001 29.3939 0002738 269.9977 90.0868 14.98326641178120
Epoch: May 26, 2026 • Age: 19 hours

現在のステータス

高度 574.3 km
速度 7.57 km/s
衛星直下点 14.92°N, 168.92°W
打ち上げ日 Mar 3, 2023
運用期間 3.2 years
タイプ internet

技術仕様

分類 Payload
質量 305.00 kg
乾燥質量 290.00 kg
総質量 305.00 kg
長さ 0.20 m
直径 2.80 m
スパン 9.00 m
形状 Box + pan
製造者 SPXS
バスタイプ Starlink
フェーズステータス In Orbit
所有者/国 SPXS/US

Most Searched